Regional Weather Roundup
Issued by NWS

Home | Current Version | Previous Version | Text Only | Print | Product List | Glossary Off
Versions: 1 2 3 4 5 6 7 8 9 10 11 12 13 14 15 16 17 18 19 20 21 22 23 24 25 26 27 28 29 30 31 32 33 34 35 36 37 38 39 40 41 42 43 44 45 46 47 48 49 50

000
ASUS43 KMPX 052010
RWRMN
WEATHER ROUNDUP FOR MINNESOTA
NATIONAL WEATHER SERVICE TWIN CITIES/CHANHASSEN MN
200 PM CST THU MAR 05 2015


NOTE: "FAIR" INDICATES FEW OR NO CLOUDS BELOW 12,000 FEET WITH NO
SIGNIFICANT WEATHER AND/OR OBSTRUCTIONS TO VISIBILITY. N/A MEANS
CURRENT SKY AND/OR WEATHER CONDITIONS ARE NOT AVAILABLE.

MNZ060>063-068>070-052100-
   Twin Cities Metro

CITY           SKY/WX    TMP DP  RH WIND       PRES   REMARKS
TWIN CITIES    FAIR      12  -4  48 SW8       30.45  WCI   0
ST PAUL        SUNNY     14  -3  47 SW12      30.48  WCI   0
CRYSTAL        FAIR      11  -3  53 SW10      30.44F WCI  -3
BLAINE         SUNNY     14   0  52 S13       30.43F WCI   0
LAKEVILLE      SUNNY     10  -2  56 W10       30.46F WCI  -3
EDEN PRAIRIE   SUNNY     13  -2  51 SW9       30.44F WCI   1
SOUTH ST PAUL  SUNNY     14  -3  46 SW10      30.46F WCI   1
LAKE ELMO      FAIR      12  -2  52 SW6       30.45F WCI   3
$$
MNZ001>005-007-008-013>017-022>024-027-028-052100-
   Northwest Minnesota

CITY           SKY/WX    TMP DP  RH WIND       PRES   REMARKS
BEMIDJI        SUNNY     15  -4  43 SW10G16   30.24F WCI   2
HALLOCK        SUNNY     16   7  67 S21       30.17F WCI  -2
ROSEAU         SUNNY     14   1  57 S14       30.18F WCI  -1
WARROAD        SUNNY     14   0  52 SW10G20   30.18F WCI   1
THIEF RVR FALL SUNNY     16   9  73 S20       30.21F WCI  -1
CROOKSTON      SUNNY     19   9  63 S23       30.23F WCI   2
FOSSTON        SUNNY     14   1  57 S21G26    30.23F WCI  -4
DETROIT LAKES  SUNNY     16   0  48 S15       30.27F WCI   1
MOORHEAD       SUNNY     18   1  49 S20G25    30.28F WCI   1
PARK RAPIDS    SUNNY     12  -3  51 S14       30.27  WCI  -3
MAHNOMEN       FAIR      15   2  57 SW20G25   30.25F WCI  -2
$$
MNZ006-009>011-018-025>026-052100-
   North Central Minnesota

CITY           SKY/WX    TMP DP  RH WIND       PRES   REMARKS
BAUDETTE       SUNNY     15  -3  44 SW14      30.18F WCI   0
FLAG ISLAND    SUNNY      7  -2  66 S16       30.16F WCI -11
INTL FALLS     SUNNY     13 -10  35 W17G25    30.22  WCI  -4
WASKISH        SUNNY     16  -2  45 SW10      30.22F WCI   3
BIG FORK       SUNNY     12  -6  44 S14       30.25F WCI  -3
LONGVILLE      SUNNY     14  -8  37 SW8       30.29F WCI   3
GRAND RAPIDS   SUNNY     12  -6  44 W12       30.27F WCI  -2
CRANE LAKE     SUNNY     12 -11  34 S9        30.26F WCI   0
ORR            SUNNY     16 -13  27 W7        30.21F WCI   6
COOK           SUNNY     12  -9  37 SW10G20   30.25F WCI  -1
WALKER         FAIR      13  -5  44 S9        30.26F WCI   0
$$
MNZ012-019>021-037-052100-
   Northeast Minnesota

CITY           SKY/WX    TMP DP  RH WIND       PRES   REMARKS
DULUTH         SUNNY     11  -9  40 W15G23    30.29  WCI  -5
ELY            SUNNY     10 -11  37 SW12      30.24F WCI  -4
HIBBING        SUNNY     13  -9  37 SW9       30.27F WCI   1
EVELETH        SUNNY     12  -8  40 SW10G17   30.27F WCI  -1
DULUTH HARBOR  SUNNY     12  -8  40 SW17      30.38F WCI  -5
TWO HARBORS    SUNNY     16  -6  38 W13G18    30.29F WCI   2
SILVER BAY     SUNNY     18  -9  29 W6        30.28F WCI   9
GRAND MARAIS     N/A     14   8  77 SW16G26   30.31  WCI  -2
G MARAIS ARPRT SUNNY     12 -17  26 SW7       30.19F WCI   2
$$
MNZ029>031-032-039>041-046>048-054>057-064-052100-
   West Central Minnesota

CITY           SKY/WX    TMP DP  RH WIND       PRES   REMARKS
FERGUS FALLS   SUNNY     12   0  57 S17       30.35F WCI  -5
WHEATON        SUNNY     16   3  57 S13       30.34F WCI   2
MORRIS         SUNNY     16   3  57 S15       30.34F WCI   1
ALEXANDRIA     SUNNY     11  -1  58 S12       30.33F WCI  -3
ELBOW LAKE     FAIR      12   2  64 S15       30.32F WCI  -4
WADENA         SUNNY     10  -2  56 S9        30.30F WCI  -2
GLENWOOD       SUNNY     14   0  52 S10       30.35F WCI   1
APPLETON       SUNNY     21   3  45 S8        30.36F WCI  12
BENSON         SUNNY     18   1  49 SW9       30.36F WCI   6
ORTONVILLE     SUNNY     19   1  45 S9        30.33F WCI   9
MADISON        FAIR      21   3  45 S12       30.35F WCI   9
WILLMAR        FAIR      18   3  53 SW13      30.39F WCI   4
$$
MNZ033>034-036-042>043-049>051-058-059-052100-
   Central Minnesota

CITY           SKY/WX    TMP DP  RH WIND       PRES   REMARKS
ST CLOUD       SUNNY     11  -1  58 S8        30.40  WCI  -1
SAUK CENTRE    FAIR      12  -1  55 SW10      30.36F WCI  -1
PAYNESVILLE    SUNNY     10  -1  59 S10G17    30.39F WCI  -4
AITKIN         SUNNY     14  -8  37 W8        30.32F WCI   3
PINE RIVER     SUNNY     12  -2  52 SW7       30.34F WCI   2
BRAINERD       SUNNY     10  -5  50 SW10      30.34F WCI  -4
STAPLES        SUNNY      9  -4  56 S9        30.33F WCI  -5
LONG PRAIRIE   FAIR      10   0  61 S7        30.35F WCI   0
LITTLE FALLS   SUNNY     10  -4  52 S9        30.38F WCI  -2
LITCHFIELD     SUNNY     12   1  62 SW6       30.41F WCI   3
BUFFALO        SUNNY     10  -2  57 SW8       30.45F WCI  -1
MAPLE LAKE     SUNNY     13   1  58 SW9       30.43F WCI   0
$$
MNZ037-044-045-052-053-052100-
   East Central Minnesota

CITY           SKY/WX    TMP DP  RH WIND       PRES   REMARKS
PRINCETON      SUNNY     12  -2  52 S8        30.41F WCI   1
MORA           SUNNY     12  -4  48 SW8       30.42F WCI   1
CAMBRIDGE      SUNNY     12  -2  52 SW8       30.41F WCI   1
RUSH CITY      SUNNY     11  -6  47 SW5       30.42F WCI   3
MOOSE LAKE     SUNNY     14  -8  37 W12       30.33F WCI   0
HINCKLEY       FAIR      12  -4  48 SW10      30.40F WCI  -1
CLOQUET        SUNNY     10 -13  34 SW13G18   30.31F WCI  -5
MCGREGOR       SUNNY     12  -4  48 S13       30.34F WCI  -3
$$
MNZ071>073-080-081-089-090-097-098-052100-
   Southwest Minnesota

CITY           SKY/WX    TMP DP  RH WIND       PRES   REMARKS
MONTEVIDEO     FAIR      21   7  53 W8        30.38F WCI  12
GRANITE FALLS  SUNNY     19   5  54 S7        30.39F WCI  10
CANBY          SUNNY     19   3  48 SW12      30.36F WCI   7
MARSHALL       SUNNY     18   1  49 SW13      30.38F WCI   4
REDWOOD FALLS  SUNNY     16   2  54 SW15      30.41  WCI   1
OLIVIA         SUNNY     16   5  62 SW13      30.40F WCI   2
PIPESTONE      SUNNY     16   7  67 SW14      30.33F WCI   1
WINDOM         SUNNY     18   3  53 S10       30.38F WCI   6
WORTHINGTON    SUNNY     18   3  53 SW15      30.38F WCI   3
JACKSON        SUNNY     18   1  49 SW14      30.39F WCI   4
TRACY          SUNNY     18   5  55 SW12      30.38F WCI   6
SLAYTON        SUNNY     17   3  53 SW14      30.36F WCI   3
$$
MNZ065>067-074>077-082>085-091>093-052100-
   South Central Minnesota

CITY           SKY/WX    TMP DP  RH WIND       PRES   REMARKS
MANKATO        SUNNY     12   0  57 SW10      30.45F WCI  -1
NEW ULM        SUNNY     14   1  57 SW8       30.43F WCI   3
ST JAMES       SUNNY     18   3  53 S10       30.44F WCI   6
FAIRMONT       SUNNY     16   1  53 SW10      30.42F WCI   3
GLENCOE        SUNNY     15   5  65 SW7       30.43F WCI   5
FARIBAULT      SUNNY     12   0  57 S7        30.45F WCI   2
OWATONNA       SUNNY     12   1  62 SW8       30.44F WCI   1
WASECA         SUNNY     12   1  62 SW10      30.47F WCI  -1
ALBERT LEA     SUNNY     10   0  61 SW7       30.44F WCI   0
$$
MNZ078>079-086>088-094>096-052100-
   Southeast Minnesota

CITY           SKY/WX    TMP DP  RH WIND       PRES   REMARKS
ROCHESTER      SUNNY      7  -2  66 SW12      30.44  WCI  -8
RED WING       SUNNY     12  -8  40 W8        30.47F WCI   1
STANTON        SUNNY     13  -2  52 SW9       30.45F WCI   0
DODGE CENTER   MOSUNNY    9   0  66 W9        30.43F WCI  -5
WINONA         SUNNY     14  -2  48 SW6       30.50F WCI   5
AUSTIN         SUNNY      9  -2  61 SW9       30.45F WCI  -5
PRESTON        SUNNY      6  -4  64 W12       30.46F WCI -10
$$
ABBREVIATIONS USED IN REMARKS
   TC - TEMPERATURES IN CELSIUS
  WCI - WIND CHILL INDEX
   HX - HEAT INDEX
  VSB - VISIBILITY
$$



USA.gov is the U.S. government's official web portal to all federal, state and local government web resources and services.